Location: Demmingen
(48.6757°N, 10.4375°E)
Time: 23:09:48
(UTC+00:00)

CZ-2D R/B - Pass Details

Date: 23 May 2024
Orbit: 791 x 843 km, 98.8° (Epoch: 14 June)

Event Time Altitude Azimuth Distance (km) Brightness Sun altitude
Rises 01:50:22 0° 12° (NNE) 3,413 6.6 -12.5°
Reaches altitude 10° 01:52:46 10° 9° (N) 2,473 5.7 -12.3°
Maximum altitude 01:58:11 63° 290° (WNW) 932 2.3 -11.7°
Enters shadow 02:02:43 15° 212° (SSW) 2,126 3.6 -11.2°
